Grand Island, NE

12:54 PM CST on November 24, 2017 (GMT -0600)
Central Nebraska Regional

Weather History for KGRI - July, 2012

Change the Weather History Date:

Sunday, July 22, 2012

  Actual Average Record
Temperature  
Mean Temperature 85 °F 76 °F  
Max Temperature 104 °F 88 °F 107 °F (1934)
Min Temperature 66 °F 65 °F 53 °F (1970)
Degree Days  
Heating Degree Days 0 0  
Month to date heating degree days 0 0  
Since 1 June heating degree days 11 24  
Since 1 July heating degree days 0 0  
Cooling Degree Days 20 11  
Month to date cooling degree days 389 251  
Year to date cooling degree days 910 529  
Since 1 June cooling degree days 728 464  
Growing Degree Days 35 (Base 50)    
Moisture  
Dew Point 56 °F    
Average Humidity 38    
Maximum Humidity 57    
Minimum Humidity 19    
Precipitation  
Precipitation 0.00 in 0.10 in 1.60 in (2001)
Month to date precipitation 0.13 2.46  
Year to date precipitation 7.14 16.71  
Snow  
Snow 0.00 in 0.00 in - ()
Month to date snowfall 0.0 0.0  
Since 1 June snowfall 0.0 0.0  
Since 1 July snowfall 0.0 0.0  
Snow Depth 0.00 in    
Sea Level Pressure  
Sea Level Pressure 29.94 in    
Wind  
Wind Speed 12 mph (SSW)    
Max Wind Speed 22 mph    
Max Gust Speed 29 mph    
Visibility 10 miles    
Events      
T = Trace of Precipitation, MM = Missing Value Source: NWS Daily Summary

Daily Weather History Graph

Daily Weather History Graph

Search for Another Location

Airport or City:

Trip Planner

Search our weather history database for the weather conditions in past years. The results will help you decide how hot, cold, wet, or windy it might be!

Date:

Astronomy

Jul. 22, 2012 Rise Set
Actual Time 6:20 AM CDT 8:58 PM CDT
Civil Twilight 5:48 AM CDT 9:30 PM CDT
Nautical Twilight 5:08 AM CDT 10:09 PM CDT
Astronomical Twilight 4:23 AM CDT 10:54 PM CDT
Moon 10:09 AM CDT (7/22) 10:39 PM CDT (7/22)
Length of Visible Light 15h 41m
Length of Day
14h 37m
Waxing Crescent, 13% of the Moon is Illuminated
Jul 22
Waxing Crescent
Jul 26
First Quarter
Aug 1
Full
Aug 9
Last Quarter
Aug 17
New

Hourly Weather History & Observations

Time (CDT) Temp. Heat Index Dew Point Humidity Pressure Visibility Wind Dir Wind Speed Gust Speed Precip Events Conditions
12:53 AM 81.0 °F 80.7 °F 55.0 °F 41% 29.91 in 10.0 mi South 15.0 mph - N/A   Clear
1:53 AM 81.0 °F - 52.0 °F 36% 29.91 in 10.0 mi South 11.5 mph - N/A   Clear
2:53 AM 80.1 °F - 51.1 °F 36% 29.91 in 10.0 mi SSW 11.5 mph - N/A   Clear
3:53 AM 78.1 °F - 51.1 °F 39% 29.93 in 10.0 mi SSW 8.1 mph - N/A   Clear
4:53 AM 73.9 °F - 52.0 °F 46% 29.94 in 10.0 mi SSW 8.1 mph - N/A   Clear
5:53 AM 71.1 °F - 53.1 °F 53% 29.98 in 10.0 mi WNW 5.8 mph - N/A   Clear
6:53 AM 69.1 °F - 54.0 °F 58% 29.98 in 10.0 mi South 5.8 mph - N/A   Clear
7:53 AM 75.0 °F - 55.0 °F 50% 29.99 in 10.0 mi South 9.2 mph - N/A   Clear
8:53 AM 82.9 °F 82.0 °F 55.0 °F 38% 29.98 in 10.0 mi South 10.4 mph - N/A   Clear
9:53 AM 89.6 °F 87.3 °F 53.6 °F 29% 30.04 in 10.0 mi SSW 9.2 mph - N/A   Clear
10:53 AM 95.0 °F - 52.0 °F 23% 29.97 in 10.0 mi SSW 13.8 mph 19.6 mph N/A   Clear
11:53 AM 96.1 °F 94.1 °F 55.0 °F 25% 29.96 in 10.0 mi SSW 13.8 mph 24.2 mph N/A   Clear
12:53 PM 98.1 °F 97.7 °F 59.0 °F 27% 29.96 in 10.0 mi SSW 16.1 mph 23.0 mph N/A   Clear
1:53 PM 100.0 °F 100.2 °F 59.0 °F 26% 29.95 in 10.0 mi South 18.4 mph 26.5 mph N/A   Clear
2:53 PM 100.9 °F 101.0 °F 59.0 °F 25% 29.94 in 10.0 mi SSW 19.6 mph 25.3 mph N/A   Clear
3:53 PM 102.9 °F 101.9 °F 55.9 °F 21% 29.93 in 10.0 mi South 19.6 mph 24.2 mph N/A   Clear
4:53 PM 104.0 °F 101.8 °F 53.1 °F 18% 29.93 in 10.0 mi South 18.4 mph 25.3 mph N/A   Clear
5:53 PM 102.9 °F 103.0 °F 57.9 °F 23% 29.92 in 10.0 mi South 12.7 mph - N/A   Clear
6:53 PM 100.0 °F 98.8 °F 55.9 °F 23% 29.91 in 10.0 mi South 11.5 mph - N/A   Clear
7:53 PM 96.1 °F 96.0 °F 60.1 °F 30% 29.90 in 10.0 mi South 10.4 mph - N/A   Clear
8:53 PM 90.0 °F 90.0 °F 61.0 °F 38% 29.89 in 10.0 mi SSE 9.2 mph - N/A   Clear
9:53 PM 88.0 °F 88.4 °F 62.1 °F 42% 29.91 in 10.0 mi South 11.5 mph - N/A   Clear
10:53 PM 87.1 °F 86.7 °F 60.1 °F 40% 29.93 in 10.0 mi South 12.7 mph - N/A   Clear
11:53 PM 89.1 °F 87.7 °F 57.0 °F 34% 29.92 in 10.0 mi SSW 15.0 mph - N/A   Clear